CST,Max TemperatureF,Mean TemperatureF,Min TemperatureF,Max Dew PointF,MeanDew PointF,Min DewpointF,Max Humidity, Mean Humidity, Min Humidity, Max Sea Level PressureIn, Mean Sea Level PressureIn, Min Sea Level PressureIn, Max VisibilityMiles, Mean VisibilityMiles, Min VisibilityMiles, Max Wind SpeedMPH, Mean Wind SpeedMPH, Max Gust SpeedMPH,PrecipitationIn, CloudCover, Events, WindDirDegrees
2013-11-1,42,35,28,37,33,27,100,87,66,29.91,29.70,29.48,10,10,6,16,10,21,0.00,7,Rain,307
2013-11-2,48,36,24,36,30,23,100,83,54,29.99,29.94,29.86,10,10,10,12,7,,0.01,1,Snow,246
2013-11-3,46,40,35,34,32,32,87,72,57,29.85,29.65,29.54,10,10,10,25,12,31,0.00,3,,141
2013-11-4,37,32,26,32,23,16,87,71,56,29.95,29.76,29.60,10,10,10,32,16,41,0.00,7,,271
2013-11-5,32,23,14,18,15,12,93,74,44,30.14,30.07,29.96,10,10,10,28,16,36,0.00,2,,273
2013-11-6,39,28,17,19,17,14,93,70,42,30.17,30.07,30.03,10,10,10,10,4,,0.00,6,,58
2013-11-7,41,29,17,25,20,14,93,77,53,30.17,30.12,30.01,10,10,9,15,6,,0.00,3,,261
2013-11-8,39,29,19,32,27,18,100,75,60,30.01,29.69,29.54,10,10,5,26,10,34,0.00,7,,127
2013-11-9,35,27,19,34,26,18,100,81,69,30.24,29.97,29.66,10,10,4,28,17,37,0.00,7,Rain-Snow,303
2013-11-10,32,19,6,27,15,1,93,75,39,30.41,30.21,30.10,10,10,10,22,11,28,0.00,4,,301
2013-11-11,17,9,1,1,0,-2,92,72,45,30.67,30.59,30.42,10,10,10,14,10,17,0.00,0,,300
2013-11-12,44,26,8,27,17,1,86,71,49,30.62,30.37,30.02,10,10,10,15,10,16,0.00,0,,216
2013-11-13,50,41,32,34,30,25,87,70,50,30.00,29.83,29.78,10,10,10,21,14,29,0.00,1,,267
2013-11-14,44,38,32,39,34,28,100,88,75,29.82,29.75,29.68,10,9,3,20,8,24,0.00,8,Rain,283
2013-11-15,51,37,23,32,29,23,100,80,44,29.73,29.50,29.32,10,10,5,20,9,24,0.00,2,,197
2013-11-16,41,31,21,32,28,19,100,89,61,29.40,29.32,29.28,10,8,0,12,4,16,0.00,6,Fog-Rain-Snow,352
2013-11-17,30,26,23,28,22,18,93,83,74,29.93,29.66,29.40,10,10,10,21,14,28,0.00,8,,354
2013-11-18,28,22,15,23,17,14,93,79,64,30.12,30.03,29.93,10,10,10,17,8,22,0.00,7,,139
2013-11-19,35,28,21,28,25,19,100,86,70,29.96,29.67,29.50,10,10,7,21,12,26,0.00,1,,163
2013-11-20,26,18,10,25,13,7,100,81,63,30.29,29.96,29.59,10,7,0,23,13,29,9.36,7,Snow,349
2013-11-21,10,0,-9,7,-4,-13,92,80,71,30.56,30.47,30.29,10,10,10,21,13,26,0.00,2,Rain,278
2013-11-22,15,2,-11,12,-1,-17,86,76,67,30.80,30.56,30.34,10,10,2,21,14,25,0.04,4,Snow,324
2013-11-23,10,-5,-20,5,-10,-26,85,79,66,30.82,30.69,30.33,10,10,10,16,6,,0.00,1,,211
2013-11-24,32,20,8,27,17,5,93,80,69,30.33,29.90,29.74,10,10,10,20,14,24,0.00,1,,236
2013-11-25,32,23,14,25,19,5,93,77,64,30.22,30.02,29.82,10,10,3,30,19,37,0.05,7,Rain-Snow,310
2013-11-26,17,8,0,9,4,-4,92,79,62,30.43,30.36,30.22,10,10,10,17,11,24,0.00,1,,316
2013-11-27,24,14,3,18,11,0,92,80,64,30.30,30.05,29.89,10,10,3,22,11,30,0.05,5,Snow,194
2013-11-28,21,10,0,18,7,-2,93,81,62,30.38,30.32,30.14,10,9,2,15,9,17,0.14,6,Snow,43
2013-11-29,24,17,10,21,15,7,100,85,79,30.32,30.07,29.94,10,9,6,21,13,25,0.00,7,,181
2013-11-30,28,18,8,23,16,7,100,88,69,30.19,30.10,29.97,10,5,0,12,6,,0.00,3,Fog,333